DW1779 Weather Reports


Display with metric or nautical units.
time (UTC)temp
F
wind
direction
speed
MPH
gust
MPH
rain 1hr
in
rain 24hr
in
rain mn
in
humidity
%
barometer
mb
20260510105558 58 342 0.0 2.0 0.00 0.01 0.00 91 1015.8
20260510105100 58 323 0.0 2.0 0.00 0.01 0.00 91 1015.8
20260510104610 58 317 1.0 2.0 0.00 0.01 0.00 91 1015.7
20260510104058 58 317 0.0 1.0 0.00 0.01 0.00 91 1015.5
20260510103556 58 317 0.0 0.0 0.00 0.01 0.00 91 1015.6
20260510103055 58 317 0.0 0.0 0.00 0.01 0.00 90 1015.5
20260510102555 58 317 0.0 1.0 0.00 0.01 0.00 90 1015.4
20260510102053 59 317 0.0 2.0 0.00 0.01 0.00 89 1015.5
20260510101555 59 317 0.0 2.0 0.00 0.01 0.00 88 1015.4
20260510101052 59 355 1.0 2.0 0.00 0.01 0.00 88 1015.2
20260510100652 59 63 0.0 2.0 0.00 0.01 0.00 88 1015.0
20260510100100 59 355 0.0 7.0 0.00 0.01 0.00 89 1015.0
20260510095559 58 5 1.0 5.0 0.00 0.01 0.00 89 1014.9
20260510095056 57 9 2.0 8.0 0.00 0.01 0.00 91 1015.0
20260510094559 57 17 2.0 8.0 0.00 0.01 0.00 92 1015.0
20260510094059 56 331 1.0 3.0 0.00 0.01 0.00 93 1015.0
20260510093554 56 316 0.0 2.0 0.00 0.01 0.00 92 1014.9
20260510093057 56 346 0.0 2.0 0.00 0.01 0.00 93 1014.8
20260510092553 56 314 0.0 0.0 0.00 0.01 0.00 92 1014.4
20260510092056 56 314 0.0 0.0 0.00 0.01 0.00 92 1014.2
20260510091552 56 314 0.0 0.0 0.00 0.01 0.00 92 1014.1
20260510091051 56 314 0.0 0.0 0.00 0.01 0.00 92 1014.1
20260510090651 56 314 0.0 0.0 0.00 0.01 0.00 91 1014.1
20260510085555 56 314 0.0 0.0 0.00 0.01 0.00 91 1014.1
20260510085052 56 314 0.0 0.0 0.00 0.01 0.00 90 1014.3
20260510084557 56 314 0.0 0.0 0.00 0.01 0.00 90 1014.2
20260510084051 57 314 0.0 0.0 0.00 0.01 0.00 90 1014.3
20260510083551 57 314 0.0 0.0 0.00 0.01 0.00 89 1014.3
20260510083054 57 314 0.0 0.0 0.00 0.01 0.00 89 1014.2
20260510082548 57 314 0.0 0.0 0.00 0.01 0.00 89 1014.1
20260510082048 57 314 0.0 0.0 0.00 0.01 0.00 89 1014.1
20260510081549 57 314 0.0 0.0 0.00 0.01 0.00 89 1014.1
20260510081048 58 314 0.0 0.0 0.00 0.01 0.00 89 1014.1
20260510080648 58 314 0.0 0.0 0.00 0.01 0.00 89 1014.0
20260510080054 58 314 0.0 0.0 0.00 0.01 0.00 89 1013.8
20260510075553 58 314 0.0 3.0 0.00 0.01 0.00 89 1013.9
20260510075055 58 314 0.0 4.0 0.00 0.01 0.00 87 1013.9
20260510074607 58 301 2.0 4.0 0.00 0.01 0.00 88 1013.9
20260510074049 57 288 1.0 3.0 0.00 0.01 0.00 89 1013.7
20260510073549 57 35 0.0 1.0 0.00 0.01 0.00 89 1013.6
20260510073050 58 35 0.0 1.0 0.00 0.01 0.00 89 1013.6
20260510072548 58 51 0.0 0.0 0.00 0.01 0.00 89 1013.5
20260510072048 58 51 0.0 0.0 0.00 0.01 0.00 88 1013.5
20260510071556 59 51 0.0 0.0 0.00 0.01 0.00 88 1013.4
20260510071049 59 51 0.0 0.0 0.00 0.01 0.00 87 1013.5
20260510070647 59 51 0.0 0.0 0.00 0.01 0.00 87 1013.6
20260510070049 59 51 0.0 1.0 0.00 0.01 0.00 85 1013.6
20260510065548 59 51 0.0 1.0 0.00 0.01 0.00 86 1013.6
20260510065046 59 51 0.0 1.0 0.00 0.01 0.00 86 1013.6
20260510064604 59 51 0.0 2.0 0.00 0.01 0.00 87 1013.7
20260510064045 59 5 0.0 2.0 0.00 0.01 0.00 84 1013.7
20260510063549 59 96 0.0 2.0 0.00 0.01 0.00 83 1013.6
20260510063044 60 130 0.0 2.0 0.00 0.01 0.00 80 1013.5
20260510062544 60 281 0.0 2.0 0.00 0.01 0.00 82 1013.7
20260510062042 60 282 0.0 3.0 0.00 0.01 0.00 82 1013.6
20260510061543 61 282 0.0 3.0 0.00 0.01 0.00 82 1013.6
20260510061041 61 141 0.0 2.0 0.00 0.01 0.00 78 1013.6
20260510060512 61 141 0.0 2.0 0.00 0.01 0.00 79 1013.7
20260510060008 62 134 0.0 3.0 0.00 0.01 0.00 79 1013.7
20260510055506 62 138 0.0 3.0 0.00 0.01 0.00 79 1013.6
20260510055004 63 128 1.0 2.0 0.00 0.01 0.00 77 1013.7
20260510054505 63 171 0.0 2.0 0.00 0.01 0.00 73 1013.8
20260510054002 63 203 1.0 2.0 0.00 0.01 0.00 74 1013.8
20260510053501 64 203 0.0 2.0 0.00 0.01 0.00 73 1013.6
20260510053000 65 240 0.0 2.0 0.00 0.01 0.00 68 1013.6
20260510052501 65 275 0.0 2.0 0.00 0.01 0.00 71 1013.7
20260510052100 64 291 1.0 3.0 0.00 0.01 0.00 70 1013.7
20260510051606 66 283 1.0 5.0 0.00 0.01 0.00 70 1013.6
20260510051058 67 294 2.0 7.0 0.00 0.01 0.00 64 1013.6
20260510050658 67 307 3.0 9.0 0.00 0.01 0.00 63 1013.6
20260510050059 67 308 2.0 12.0 0.00 0.01 0.00 65 1013.5
20260510045554 66 344 4.0 12.0 0.00 0.08 0.01 66 1013.2
20260510045053 65 346 5.0 12.0 0.00 0.08 0.01 69 1013.3
20260510044555 64 326 4.0 9.0 0.00 0.08 0.01 71 1013.1
20260510044052 63 291 1.0 3.0 0.00 0.08 0.01 77 1012.5
20260510043550 63 207 0.0 4.0 0.00 0.08 0.01 76 1012.5
20260510043058 63 198 0.0 4.0 0.00 0.08 0.01 77 1012.5
20260510042549 61 219 0.0 4.0 0.00 0.08 0.01 80 1012.4
20260510042049 60 304 0.0 4.0 0.00 0.08 0.01 85 1012.4
20260510041607 59 200 1.0 5.0 0.00 0.08 0.01 89 1012.3
20260510041053 58 192 2.0 5.0 0.00 0.08 0.01 90 1012.2
20260510040649 58 186 1.0 5.0 0.00 0.08 0.01 90 1012.3
20260510040047 58 207 0.0 0.0 0.00 0.08 0.01 92 1012.3
20260510035547 58 207 0.0 0.0 0.00 0.50 0.01 92 1012.5
20260510035046 57 207 0.0 0.0 0.00 0.50 0.01 93 1012.5
20260510034546 57 207 0.0 1.0 0.00 0.50 0.01 92 1012.4
20260510034049 57 207 0.0 2.0 0.00 0.50 0.01 92 1012.5
20260510033547 57 207 1.0 2.0 0.00 0.50 0.01 92 1012.4
20260510033046 57 207 1.0 2.0 0.00 0.50 0.01 92 1012.2
20260510032548 57 207 0.0 1.0 0.00 0.50 0.01 92 1012.3
20260510032046 57 207 0.0 1.0 0.00 0.50 0.01 92 1012.2
20260510031544 57 207 0.0 2.0 0.00 0.50 0.01 91 1012.2
20260510031045 57 207 0.0 2.0 0.00 0.50 0.01 91 1012.1
20260510030646 57 207 1.0 2.0 0.00 0.50 0.01 91 1012.0
20260510030049 58 207 1.0 2.0 0.00 0.50 0.01 91 1012.1
20260510025544 58 207 0.0 2.0 0.00 0.51 0.01 91 1012.2
20260510025041 58 207 0.0 2.0 0.00 0.51 0.01 91 1012.0
20260510024552 58 207 0.0 2.0 0.00 0.51 0.01 90 1012.0
20260510024045 58 228 0.0 0.0 0.00 0.51 0.01 90 1011.8
20260510023541 58 312 0.0 0.0 0.00 0.51 0.01 89 1011.7
20260510023041 59 312 0.0 0.0 0.00 0.51 0.01 89 1011.8
20260510022546 59 312 0.0 0.0 0.00 0.51 0.01 88 1011.6
20260510022042 59 312 0.0 0.0 0.00 0.51 0.01 87 1011.5
20260510021542 59 312 0.0 0.0 0.00 0.51 0.01 87 1011.3
20260510021040 60 312 0.0 0.0 0.00 0.51 0.01 87 1011.2
20260510020641 60 312 0.0 0.0 0.00 0.51 0.01 87 1011.1
20260510020049 60 312 0.0 0.0 0.00 0.51 0.01 86 1011.0
20260510015541 61 312 0.0 0.0 0.00 0.51 0.01 85 1010.9
20260510015042 61 312 0.0 0.0 0.00 0.51 0.01 85 1010.9
20260510014540 61 312 0.0 0.0 0.00 0.51 0.01 85 1010.9
20260510014039 62 312 0.0 0.0 0.00 0.51 0.01 85 1010.7
20260510013539 62 312 0.0 0.0 0.00 0.51 0.01 84 1010.7
20260510013046 62 312 0.0 0.0 0.00 0.51 0.01 83 1010.7
20260510012543 63 312 0.0 0.0 0.00 0.51 0.01 82 1010.7
20260510012039 63 312 0.0 0.0 0.00 0.51 0.01 81 1010.6
20260510011540 63 312 0.0 0.0 0.00 0.51 0.01 79 1010.6
20260510011038 64 312 0.0 0.0 0.00 0.51 0.01 77 1010.4
20260510010638 65 312 0.0 0.0 0.00 0.51 0.01 77 1010.3
20260510010110 65 312 0.0 0.0 0.00 0.51 0.01 75 1010.3
20260510005557 66 312 0.0 0.0 0.00 0.54 0.01 73 1010.2
20260510005056 67 312 0.0 0.0 0.00 0.54 0.01 72 1010.1
20260510004603 67 312 0.0 1.0 0.00 0.54 0.01 72 1010.1
20260510004056 68 312 0.0 1.0 0.00 0.54 0.01 70 1010.1
20260510003556 68 312 0.0 1.0 0.00 0.54 0.01 70 1010.0
20260510003057 69 312 0.0 1.0 0.00 0.54 0.01 69 1010.0
20260510002558 70 312 0.0 1.0 0.00 0.54 0.01 66 1009.9
20260510002055 71 312 0.0 0.0 0.00 0.54 0.01 63 1009.9
20260510001555 71 312 0.0 0.0 0.00 0.54 0.01 59 1010.0
20260510001057 72 312 0.0 1.0 0.00 0.54 0.01 60 1009.9
20260510000656 72 312 0.0 2.0 0.00 0.54 0.01 56 1009.9
20260510000057 73 294 0.0 3.0 0.00 0.54 0.01 57 1009.9
20260509235551 74 300 0.0 4.0 0.00 0.54 0.01 56 1009.8
20260509235051 75 303 1.0 4.0 0.00 0.54 0.01 55 1009.8
20260509234602 76 294 0.0 3.0 0.00 0.54 0.01 52 1009.8
20260509234053 78 309 1.0 4.0 0.00 0.54 0.01 44 1009.9
20260509233551 78 287 1.0 4.0 0.00 0.54 0.01 41 1009.7
20260509233050 78 300 1.0 9.0 0.00 0.54 0.01 44 1009.8
20260509232550 78 255 5.0 9.0 0.00 0.54 0.01 43 1009.8
20260509232050 78 295 2.0 7.0 0.00 0.54 0.01 43 1009.9
20260509231550 78 295 2.0 5.0 0.00 0.54 0.01 42 1009.9
20260509231049 78 328 2.0 5.0 0.00 0.54 0.01 43 1009.8
20260509230651 78 301 0.0 7.0 0.00 0.54 0.01 47 1009.8
20260509230048 78 298 1.0 7.0 0.00 0.54 0.01 47 1009.8
20260509225548 78 315 3.0 10.0 0.00 0.54 0.01 45 1009.9
20260509225047 78 286 3.0 10.0 0.00 0.54 0.01 43 1009.8
20260509224548 78 268 3.0 6.0 0.00 0.54 0.01 46 1009.7
20260509224049 78 325 2.0 7.0 0.00 0.54 0.01 41 1009.7
20260509223547 78 309 2.0 10.0 0.00 0.54 0.01 43 1009.6
20260509223049 78 286 5.0 10.0 0.00 0.54 0.01 41 1009.7
20260509222546 78 327 2.0 8.0 0.00 0.54 0.01 43 1009.7
20260509222046 78 348 3.0 9.0 0.00 0.54 0.01 42 1009.6
20260509221603 78 325 3.0 9.0 0.00 0.54 0.01 44 1009.7
20260509221046 78 271 2.0 8.0 0.00 0.54 0.01 45 1009.5
20260509220647 78 263 2.0 7.0 0.00 0.54 0.01 44 1009.6
20260509220058 79 334 2.0 7.0 0.00 0.54 0.01 42 1009.6
20260509215646 79 331 1.0 5.0 0.00 0.54 0.01 43 1009.7
20260509215044 79 263 2.0 11.0 0.00 0.54 0.01 40 1009.6
20260509214544 79 296 5.0 11.0 0.00 0.54 0.01 46 1009.6
20260509214044 79 270 3.0 6.0 0.00 0.54 0.01 46 1009.6
20260509213544 79 283 3.0 6.0 0.00 0.54 0.01 46 1009.7
20260509213044 79 284 2.0 11.0 0.00 0.54 0.01 48 1009.5
20260509212544 79 300 4.0 11.0 0.00 0.54 0.01 41 1009.6
20260509212046 79 310 4.0 10.0 0.00 0.54 0.01 45 1009.7
20260509211546 79 296 2.0 10.0 0.00 0.54 0.01 48 1009.9
20260509211048 80 298 3.0 12.0 0.00 0.54 0.01 42 1009.9
20260509210643 80 289 4.0 12.0 0.00 0.54 0.01 43 1009.9
20260509210105 79 296 3.0 12.0 0.00 0.54 0.01 39 1010.0
20260509205600 79 297 3.0 14.0 0.00 0.54 0.01 44 1010.1
20260509205100 80 317 5.0 14.0 0.00 0.54 0.01 44 1010.2
20260509204602 79 306 7.0 12.0 0.00 0.54 0.01 41 1010.3
20260509204059 79 319 3.0 13.0 0.00 0.54 0.01 42 1010.3
20260509203558 79 336 4.0 13.0 0.00 0.54 0.01 49 1010.3
20260509203100 79 266 2.0 13.0 0.00 0.54 0.01 47 1010.3
20260509202558 79 290 3.0 12.0 0.00 0.54 0.01 44 1010.3
20260509202058 79 329 6.0 12.0 0.00 0.54 0.01 43 1010.5
20260509201558 79 306 3.0 10.0 0.00 0.54 0.01 47 1010.5
20260509201056 79 259 3.0 10.0 0.00 0.54 0.01 52 1010.5
20260509200502 79 304 3.0 13.0 0.00 0.54 0.01 43 1010.6
20260509200001 79 294 6.0 13.0 0.00 0.54 0.01 44 1010.6
20260509195601 79 293 4.0 13.0 0.00 0.54 0.01 46 1010.7
20260509195103 79 309 2.0 8.0 0.00 0.54 0.01 48 1010.7
20260509194559 79 304 3.0 11.0 0.00 0.54 0.01 47 1010.7
20260509194059 79 315 3.0 11.0 0.00 0.54 0.01 48 1010.7
20260509193559 78 299 2.0 11.0 0.00 0.54 0.01 45 1010.7
20260509193125 78 307 7.0 13.0 0.00 0.54 0.01 44 1010.7
20260509192557 79 272 5.0 13.0 0.00 0.54 0.01 50 1010.7
20260509192101 79 333 5.0 11.0 0.00 0.54 0.01 48 1010.6
20260509191613 78 279 2.0 12.0 0.00 0.54 0.01 49 1010.6
20260509191057 78 307 5.0 12.0 0.00 0.54 0.01 52 1010.5
20260509190655 78 310 4.0 12.0 0.00 0.54 0.01 52 1010.6
20260509190111 78 212 4.0 11.0 0.00 0.54 0.01 52 1010.5
20260509185556 78 300 6.0 11.0 0.00 0.54 0.01 48 1010.7
20260509185056 78 263 4.0 10.0 0.00 0.54 0.01 54 1010.7
20260509184554 78 295 4.0 11.0 0.00 0.54 0.01 53 1010.7
20260509184054 77 263 4.0 12.0 0.00 0.54 0.01 54 1010.7
20260509183554 77 281 5.0 12.0 0.00 0.54 0.01 52 1010.7
20260509183055 77 262 5.0 13.0 0.00 0.54 0.01 51 1010.7
20260509182552 77 283 3.0 13.0 0.00 0.54 0.01 54 1010.7
20260509182052 77 360 4.0 11.0 0.00 0.54 0.01 56 1010.9
20260509181551 77 318 4.0 11.0 0.00 0.54 0.01 57 1010.9
20260509181051 76 338 5.0 11.0 0.00 0.54 0.01 55 1010.9
20260509180651 76 298 4.0 11.0 0.00 0.54 0.01 58 1010.9
20260509180054 76 295 5.0 16.0 0.00 0.54 0.01 56 1011.1
20260509175554 76 49 6.0 16.0 0.00 0.54 0.01 56 1011.1
20260509175053 76 294 5.0 11.0 0.00 0.54 0.01 56 1011.1
20260509174552 76 285 4.0 14.0 0.00 0.54 0.01 55 1011.1
20260509174051 76 307 7.0 14.0 0.00 0.54 0.01 55 1011.3
20260509173549 75 275 6.0 12.0 0.00 0.54 0.01 54 1011.2
20260509173057 75 273 5.0 14.0 0.00 0.54 0.01 56 1011.2
20260509172550 75 280 5.0 14.0 0.00 0.54 0.01 58 1011.3
20260509172047 75 315 4.0 10.0 0.00 0.54 0.01 58 1011.3
20260509171559 74 317 2.0 13.0 0.00 0.54 0.01 63 1011.3
20260509171045 74 322 4.0 17.0 0.00 0.54 0.01 58 1011.4
20260509170645 74 288 7.0 17.0 0.00 0.54 0.01 58 1011.5
20260509170055 74 311 5.0 13.0 0.00 0.54 0.01 60 1011.4
20260509165554 74 337 4.0 9.0 0.00 0.54 0.01 61 1011.4
20260509165052 74 290 3.0 8.0 0.00 0.54 0.01 67 1011.5
20260509164553 73 335 2.0 10.0 0.00 0.54 0.01 64 1011.5
20260509164053 73 292 4.0 10.0 0.00 0.54 0.01 63 1011.7
20260509163551 73 283 4.0 10.0 0.00 0.54 0.01 66 1011.7
20260509163055 73 301 3.0 11.0 0.00 0.54 0.01 68 1011.7
20260509162551 72 324 4.0 9.0 0.00 0.54 0.01 64 1011.6
20260509162046 72 271 1.0 11.0 0.00 0.54 0.01 69 1011.7
20260509161544 72 313 2.0 11.0 0.00 0.54 0.01 66 1011.8
20260509161042 71 263 3.0 9.0 0.00 0.54 0.01 67 1011.8
20260509160514 71 5 3.0 9.0 0.00 0.54 0.01 65 1011.8
20260509160017 71 296 3.0 9.0 0.00 0.54 0.01 68 1011.8
20260509155512 71 315 1.0 9.0 0.00 0.54 0.01 70 1011.7
20260509155016 70 296 5.0 9.0 0.00 0.54 0.01 68 1011.6
20260509154507 70 249 4.0 9.0 0.00 0.54 0.01 71 1011.6
20260509154006 70 265 3.0 9.0 0.00 0.54 0.01 70 1011.7
20260509153504 69 286 3.0 8.0 0.00 0.54 0.01 76 1011.6
20260509153103 69 321 2.0 9.0 0.00 0.54 0.01 73 1011.7
20260509152501 69 267 5.0 10.0 0.00 0.54 0.01 73 1011.6
20260509152101 68 273 2.0 10.0 0.00 0.54 0.01 75 1011.7
20260509151607 68 265 4.0 11.0 0.00 0.54 0.01 75 1011.7
20260509151100 68 34 5.0 11.0 0.00 0.54 0.01 75 1011.6
20260509150511 67 9 4.0 10.0 0.00 0.54 0.01 77 1011.5
20260509150010 67 299 3.0 6.0 0.01 0.54 0.01 80 1011.5
20260509145509 67 240 2.0 8.0 0.01 0.54 0.01 81 1011.5
20260509145008 66 298 4.0 8.0 0.01 0.54 0.01 82 1011.5
20260509144506 66 309 2.0 9.0 0.01 0.54 0.01 83 1011.5
20260509144004 65 277 5.0 9.0 0.01 0.54 0.01 83 1011.4
20260509143501 65 249 1.0 8.0 0.01 0.54 0.01 86 1011.6
20260509143100 64 295 3.0 8.0 0.01 0.54 0.01 88 1011.6
20260509142558 64 291 2.0 5.0 0.01 0.54 0.01 91 1011.4
20260509142057 63 236 1.0 8.0 0.01 0.54 0.01 95 1011.5
20260509141556 62 295 3.0 8.0 0.01 0.54 0.01 96 1011.5
20260509141054 61 326 1.0 4.0 0.01 0.54 0.01 97 1011.3
20260509140501 60 335 2.0 4.0 0.01 0.54 0.01 98 1011.2
20260509140107 59 257 1.0 8.0 0.00 0.53 0.00 98 1011.3
20260509135601 58 339 3.0 8.0 0.00 0.53 0.00 98 1011.3
20260509135057 58 126 0.0 3.0 0.00 0.53 0.00 98 1011.2
20260509134607 57 157 0.0 2.0 0.00 0.53 0.00 98 1011.2
20260509134053 57 157 0.0 2.0 0.00 0.53 0.00 98 1011.1
20260509133552 56 88 0.0 2.0 0.00 0.53 0.00 98 1011.1
20260509133052 55 5 0.0 2.0 0.00 0.53 0.00 98 1011.1
20260509132551 54 355 0.0 2.0 0.00 0.53 0.00 98 1011.1
20260509132052 53 360 0.0 1.0 0.00 0.53 0.00 98 1011.0
20260509131605 53 360 0.0 2.0 0.00 0.53 0.00 98 1010.9
20260509131048 53 5 0.0 2.0 0.00 0.53 0.00 98 1011.0
20260509130648 52 15 0.0 1.0 0.00 0.53 0.00 97 1010.9
20260509125551 51 360 0.0 1.0 0.00 0.53 0.00 97 1010.8
20260509125055 51 347 0.0 1.0 0.00 0.53 0.00 97 1010.9
20260509124550 51 355 0.0 1.0 0.00 0.53 0.00 97 1010.9
20260509124048 50 343 0.0 1.0 0.00 0.53 0.00 97 1010.8
20260509123548 50 327 0.0 1.0 0.00 0.53 0.00 97 1010.8
20260509123052 50 327 0.0 1.0 0.00 0.53 0.00 97 1010.8
20260509122546 50 325 0.0 1.0 0.00 0.53 0.00 97 1010.8
20260509122045 50 325 0.0 1.0 0.00 0.53 0.00 97 1010.7
20260509121549 50 325 0.0 1.0 0.00 0.53 0.00 97 1010.7
20260509121048 50 325 0.0 1.0 0.00 0.53 0.00 97 1010.6
20260509120645 50 325 0.0 1.0 0.00 0.53 0.00 97 1010.6
20260509120058 50 347 0.0 2.0 0.00 0.53 0.00 97 1010.6
20260509115552 50 178 0.0 1.0 0.00 0.53 0.00 97 1010.5
20260509115051 49 178 0.0 1.0 0.00 0.53 0.00 97 1010.5
20260509114605 49 178 0.0 1.0 0.00 0.53 0.00 97 1010.5
20260509114049 49 178 0.0 1.0 0.00 0.53 0.00 97 1010.5
20260509113549 49 178 0.0 0.0 0.00 0.53 0.00 97 1010.4
20260509113053 49 178 0.0 0.0 0.00 0.53 0.00 97 1010.4
20260509112546 49 178 0.0 0.0 0.00 0.53 0.00 97 1010.4
20260509112045 49 178 0.0 0.0 0.00 0.53 0.00 97 1010.2
20260509111546 49 178 0.0 0.0 0.00 0.53 0.00 97 1010.1
20260509111047 49 178 0.0 0.0 0.00 0.53 0.00 97 1010.1
20260509110514 49 178 0.0 1.0 0.00 0.53 0.00 97 1010.1